Regional Weather Roundup
Issued by NWS Upton, NY

Current Version | Previous Version | Text Only | Print | Product List | Glossary On
Versions: 1 2 3 4 5 6 7 8 9 10 11 12 13 14 15 16 17 18 19 20 21 22 23 24 25 26 27 28 29 30 31 32 33 34 35 36 37 38 39 40 41 42 43 44 45 46 47 48 49 50
701
ASUS41 KOKX 241404
RWROKX

REGIONAL WEATHER ROUNDUP
NATIONAL WEATHER SERVICE NEW YORK NY
1000 AM EDT WED AUG 24 2016

NOTE: "FAIR" INDICATES FEW OR NO CLOUDS BELOW 12,000 FEET WITH NO
SIGNIFICANT WEATHER AND/OR OBSTRUCTIONS TO VISIBILITY.

NYZ071-072-176-178-NJZ106-104-241500-
NEW YORK CITY METRO AREA

CITY           SKY/WX    TMP DP  RH WIND       PRES   REMARKS
Central Park   SUNNY     75  60  59 VRB3      30.31F
LaGuardia APRT MOSUNNY   80  60  50 VRB5      30.27F
Kennedy INTL   MOSUNNY   77  62  59 W9        30.29F
Newark/Liberty MOSUNNY   79  60  52 VRB3      30.28F
Bronx Bot Gard   N/A     77  59  53 SW10      30.29F
Wall St Helipt SUNNY     79  63  57 W7        30.29F
Teterboro      SUNNY     80  58  46 CALM      30.27F
$$

NYZ177-179-078>081-241500-
LONG ISLAND NEW YORK

CITY           SKY/WX    TMP DP  RH WIND       PRES   REMARKS
Farmingdale    SUNNY     80  59  48 NW6       30.28F
MacArthur/ISP  MOSUNNY   80  59  48 NW8       30.28S
Shirley        SUNNY     79  61  53 W6        30.29S
Riverhead      NOT AVBL
Westhampton    SUNNY     78  59  51 SW3       30.30S
Southampton      N/A     77  64  65 SW3       30.25R
Bridgehampton    N/A     75  64  69 S1        30.27S
East Hampton   FAIR      77  62  59 W6        30.27S
Montauk          N/A     74  67  78 VRB5      30.29R
$$

NYZ052-065-067-241500-
HUDSON VALLEY

CITY           SKY/WX    TMP DP  RH WIND       PRES   REMARKS
White Plains   SUNNY     77  61  57 NW7       30.28F
Newburgh       SUNNY     72  63  73 W6        30.31S
Montgomery     SUNNY     73  63  70 S5        30.29F
Poughkeepsie   SUNNY     74  60  61 CALM      30.28S
Albany         MOSUNNY   70  60  70 VRB6      30.28F
$$

NJZ001-105-106-008-010-013-015-019>022-104-241500-
NEW JERSEY

CITY           SKY/WX    TMP DP  RH WIND       PRES   REMARKS
Newark/Liberty MOSUNNY   79  60  52 VRB3      30.28F
Teterboro      SUNNY     80  58  46 CALM      30.27F
Caldwell       SUNNY     75  61  61 CALM      30.29F
Morristown     SUNNY     73  64  73 CALM      30.29F
Somerville     SUNNY     76  62  62 CALM      30.28F
Linden         FAIR      77  59  53 CALM      30.30F
Sussex         SUNNY     71  63  75 S5        30.30F
Abdover          N/A     71  62  73 SW5       30.31F
Trenton        SUNNY     76  60  57 VRB5      30.29F
Millville      SUNNY     77  66  68 W7        30.31F
Atlantic City  SUNNY     77  63  61 W7        30.31S
Wrightstown    SUNNY     77  64  64 W7        30.27F
Toms River     SUNNY     78  62  57 W8        30.31S
Belmar         SUNNY     77  62  59 W7        30.31F
$$

PAZ047>061-062-071-241500-
EASTERN PENNSYLVANIA

CITY           SKY/WX    TMP DP  RH WIND       PRES   REMARKS
Philadelphia   MOSUNNY   76  62  62 SW7       30.31S
Allentown      SUNNY     74  61  63 W6        30.30F
Scranton       SUNNY     73  61  65 W3        30.30F
$$

CTZ002-004>006-009-010-012-RIZ004-006-007-MAZ004-011-015-241500-
SOUTHERN NEW ENGLAND
 IN CT

CITY           SKY/WX    TMP DP  RH WIND       PRES   REMARKS
Bradley INTL   MOSUNNY   73  59  61 CALM      30.29R
Hartford       SUNNY     77  62  59 NE3       30.28R
Danbury        SUNNY     73  61  65 SW5       30.30S
Wtrbury/Oxford SUNNY     73  59  60 NW6       30.32S
Bridgeport     SUNNY     78  62  57 VRB3      30.28S
Meriden        SUNNY     77  60  55 VRB3      30.28S
New Haven      MOSUNNY   74  62  66 CALM      30.28S
Chester        FAIR      77  59  53 W6        30.29R
Groton         SUNNY     78  64  61 VRB6      30.27S
Wilimantic     SUNNY     73  63  70 CALM      30.29S

 IN RI

CITY           SKY/WX    TMP DP  RH WIND       PRES   REMARKS
Providence     MOSUNNY   79  60  52 W6        30.27S
Block Island   SUNNY     75  66  73 W10       30.28S
Westerly       SUNNY     78  60  53 VRB3      30.28S
 IN MA

CITY           SKY/WX    TMP DP  RH WIND       PRES   REMARKS
Boston         MOSUNNY   78  58  49 SW7       30.24F
Worcester      SUNNY     71  57  61 W10       30.28F
Westfield      SUNNY     72  60  66 CALM      30.28S
Provincetown   SUNNY     73  63  70 W7        30.27R
Nantucket      SUNNY     74  65  73 SW14      30.27S
$$

ANZ330-335-338-340-345-350-353-355-241500-
COASTAL MARINE OBSERVATIONS


STATION/POSITION TIME  SKY/WX   TEMP    WIND        PRES    VSBY  WAVE
                                AIR SEA DIR/SP/G                  HT/PER
                 (UTC)          (F)     (DEG/KT/KT) (MB)    (MI)  (FT/S)
NY HARB ENTRANCE 1250            72 76  280/  8/  8 1025.7          2/ 7
20S FIRE ISLAND  1250            74 76  290/ 10/ 12 1025.4          2/13
GREAT SOUTH BAY  1300            73 79  270/  6/  8   N/A
23 SSW MONTAUK P 1250            73 74  260/ 10/ 10 1025.7          2/13
15 E BARNEGAT LI 1300               76                N/A           2/13
HUDSON CANYON    1250            75 78              1025.8          1/13
KINGS POINT      1300            74 75              1025.4
EXECUTION ROCKS  1300            80     200/  2/  4   N/A
CENTRAL LI SOUND NOT AVBL
EASTERN LI SOUND 1300            75 70  280/  4/  6   N/A
ROBBINS REEF     1306            72     270/  7/  9 1025.0
$$


>>>>>>>>>>>>>>>>>>>>>>>>>>>> KEY <<<<<<<<<<<<<<<<<<<<<<<<<<<
>                                                          <
>     SKY/WX - Sky Condition/Present Weather               <
>     TMP    - Temperature in Fahrenheit                   <
>     DP     - Dew Point in Fahrenheit                     <
>     RH     - Relative Humidity in Percent                <
>     WIND   - Direction (from) and Speed in MPH           <
>     PRES   - Mean Sea Level Pressure (inches of Hg)      <
>     WCI    - Wind Chill Index                            <
>     VSB    - VISIBILITY IN MILES                         <
>     HX     - HEAT INDEX                                  <
>     TC     - TEMPERATURE IN CELSIUS                      <
>     VRB    - VARIABLE WIND DIRECTION                     <
>                                                          <
>>>>>>>>>>>>>>>>>>>>>>>>>>>> KEY <<<<<<<<<<<<<<<<<<<<<<<<<<<




USA.gov is the U.S. government's official web portal to all federal, state and local government web resources and services.